EFTU Weather Reports


time (UTC)temp
F
wind
direction
speed
knots
gust
knots
rain 1hr
in
rain 24hr
in
rain mn
in
humidity
%
barometer
mb
20260906064127 53 318 4.3 7.8 0.00 0.00 0.00 76 1008.1
20260906062457 51 297 3.5 6.1 0.00 0.00 0.00 81 1007.9
20260906060454 50 309 3.5 5.2 0.00 0.00 0.00 84 1007.8
20260906054457 48 306 3.5 5.2 0.00 0.00 0.00 88 1007.7
20260906044128 45 300 3.5 5.2 0.00 0.00 0.00 95 1007.3
20260906042128 43 299 3.5 6.1 0.00 0.00 0.00 97 1007.0
20260906040457 44 321 3.5 6.1 0.00 0.00 0.00 95 1006.8
20260906034456 43 307 3.5 5.2 0.00 0.00 0.00 97 1006.7
20260906032456 43 307 3.5 6.1 0.00 0.00 0.00 95 1006.6
20260906030458 44 316 3.5 5.2 0.00 0.00 0.00 96 1006.3
20260906022458 45 333 3.5 6.1 0.00 0.00 0.00 94 1005.9
20260906020457 45 317 4.3 8.7 0.00 0.00 0.00 94 1005.7
20260906014459 44 305 5.2 8.7 0.00 0.00 0.00 96 1005.5
20260906012456 44 309 4.3 6.1 0.00 0.00 0.00 96 1005.3
20260906010458 45 327 2.6 6.1 0.00 0.00 0.00 94 1005.0
20260906004459 45 329 3.5 7.0 0.00 0.00 0.00 93 1004.9
20260906002127 46 329 4.3 7.8 0.00 0.00 0.00 93 1004.7
20260906000456 46 329 4.3 7.8 0.00 0.00 0.00 93 1004.5
20260905234456 47 339 5.2 9.6 0.00 0.00 0.00 92 1004.2
20260905232456 47 327 5.2 10.4 0.00 0.00 0.00 91 1004.0
20260905230456 47 339 5.2 11.3 0.00 0.00 0.00 90 1003.8
20260905224128 48 331 4.3 8.7 0.00 0.00 0.00 90 1003.7
20260905222456 48 325 5.2 10.4 0.00 0.00 0.00 89 1003.4
20260905220456 48 323 4.3 7.8 0.00 0.00 0.00 89 1003.1
20260905214456 50 339 4.3 8.7 0.00 0.00 0.00 87 1002.7
20260905212457 50 333 3.5 7.0 0.00 0.00 0.00 88 1002.5
20260905210454 51 347 5.2 9.6 0.00 0.00 0.00 86 1002.2
20260905204455 52 359 6.1 11.3 0.00 0.00 0.00 85 1001.9
20260905202455 52 353 4.3 7.8 0.00 0.00 0.00 87 1001.6
20260905200457 53 3 5.2 8.7 0.00 0.00 0.00 86 1001.2
20260905194126 53 348 5.2 10.4 0.00 0.00 0.00 87 1000.9
20260905184456 55 314 3.5 5.2 0.00 0.00 0.00 83 1000.2
20260905182125 55 308 4.3 5.2 0.00 0.00 0.00 83 1000.2
20260905180453 55 314 3.5 5.2 0.00 0.00 0.00 83 1000.2
20260905174453 56 315 3.5 6.1 0.00 0.00 0.00 80 999.9
20260905172453 57 317 3.5 6.1 0.00 0.00 0.00 78 999.7
20260905162127 59 314 7.0 11.3 0.00 0.00 0.00 71 999.0
20260905160454 60 322 7.8 12.2 0.00 0.00 0.00 67 998.7
20260905154454 61 300 7.8 13.0 0.00 0.00 0.00 66 998.5
20260905152126 59 301 5.2 8.7 0.00 0.00 0.00 72 998.5
20260905142455 60 320 4.3 7.0 0.00 0.00 0.00 77 998.0
20260905140125 57 331 4.3 8.7 0.00 0.00 0.00 83 997.9
20260905134454 58 338 10.4 16.5 0.00 0.00 0.00 78 997.8
20260905132125 63 319 9.6 17.4 0.00 0.00 0.00 57 997.3
20260905130459 62 310 9.6 17.4 0.00 0.00 0.00 56 997.1
20260905124124 64 334 6.1 10.4 0.00 0.00 0.00 49 997.0
20260905122453 64 335 6.1 11.3 0.00 0.00 0.00 46 996.9
20260905120454 65 313 5.2 10.4 0.00 0.00 0.00 44 996.8
20260905114454 64 314 4.3 11.3 0.00 0.00 0.00 49 996.7
20260905110124 64 296 6.1 9.6 0.00 0.00 0.00 52 996.5
20260905102454 61 320 7.0 12.2 0.00 0.00 0.00 56 996.2
20260905100123 63 328 6.1 12.2 0.00 0.00 0.00 53 996.0
20260905092454 61 321 6.1 10.4 0.00 0.00 0.00 59 995.8
20260905090454 59 8 3.5 7.0 0.00 0.00 0.00 67 995.7
20260905084454 61 356 4.3 8.7 0.00 0.00 0.00 65 995.6
20260905082456 60 14 3.5 7.8 0.00 0.00 0.00 68 995.5
20260905080452 58 33 3.5 6.1 0.00 0.00 0.00 74 995.5
20260905074124 56 26 3.5 6.1 0.00 0.00 0.00 79 995.4
20260905072123 52 19 2.6 5.2 0.00 0.00 0.00 91 995.3